Back to catalog

GAOFEN 9 02

AliveScienceSSO
NORAD 45625·PAYLOAD·🇨🇳 China

Launched May 31, 2020 from Jiuquan Satellite Launch Center

Loading…

Next Passes (next 24 hours)

TLE

FreshSource: Space-Track

Epoch: Sep 14, 2026, 14:32 UTC

1 45625U 20034B   26257.60623892  .00004626  00000-0  17826-3 0  9994
2 45625  97.5863  56.2312 0013668 110.9768 249.2934 15.26770562349805

Track GAOFEN 9 02 in real time with AllMySat

Download on the App Store